(676480) = 2016 GZ215

Discovered at Haleakala on 2016-02-11 by Pan-STARRS 1.

Orbit

Orbit type: Amor
Near-Earth Object

Note: WebGL enabled browser required.

epoch2024-03-31.0
epoch JD2460400.5
perihelion date2024-02-18.45351
perihelion JD2460358.95351
argument of perihelion (°)31.07474
ascending node (°)101.45879
inclination (°)6.56976
eccentricity0.2289978
perihelion distance (AU)1.2381633
Tisserand w.r.t. Jupiter4.3
ΔV w.r.t. Earth (km/sec)6.2
semimajor axis (AU)1.6059142
mean anomaly (°)20.12124
mean daily motion (°/day)0.48430660
aphelion distance (AU)1.974
period (years)2.04
P-vector [x]-0.67269970
P-vector [y]0.65320296
P-vector [z]0.34756441
Q-vector [x]-0.73136956
Q-vector [y]-0.65819233
Q-vector [z]-0.17855368
absolute magnitude21.08
phase slope0.15
uncertainty0
referenceMPO 808854
observations used283
oppositions5
arc length (days)2952
first opposition used2016
last opposition used2024
residual rms (arc-secs)0.77
perturbers coarse indicatorM-v
perturbers precise indicator003Ek
first observation date used2016-02-11.0
last observation date used2024-03-12.0
computer nameMPCLINUX

Observations

294 total observations over interval: 2016 02 11.58701 – 2024 03 12.187261
These data are available for download (format description).

Date (UT) J2000 RA J2000 Dec Magn Location Ref
2016 02 11.58701 14 27 02.774 -00 24 58.87 22.0 w F51 – Pan-STARRS 1, Haleakala MPS 701474
2016 02 11.59936 14 27 04.206 -00 24 58.78 21.6 w F51 – Pan-STARRS 1, Haleakala MPS 701474
2016 02 11.61179 14 27 05.652 -00 24 58.54 21.8 w F51 – Pan-STARRS 1, Haleakala MPS 701474
2016 03 05.54571 15 01 34.068 +00 40 21.11 21.8 w F51 – Pan-STARRS 1, Haleakala MPS 701474
2016 03 05.55729 15 01 34.628 +00 40 24.84 21.7 w F51 – Pan-STARRS 1, Haleakala MPS 701474
2016 03 05.58055 15 01 35.729 +00 40 32.17 21.6 w F51 – Pan-STARRS 1, Haleakala MPS 701474
2016 04 10.54272 14 54 27.359 +04 09 27.80 20.2 w F51 – Pan-STARRS 1, Haleakala MPS 701474
2016 04 10.55569 14 54 26.338 +04 09 30.38 20.7 w F51 – Pan-STARRS 1, Haleakala MPS 701474
2016 04 10.56796 14 54 25.380 +04 09 32.98 21.1 w F51 – Pan-STARRS 1, Haleakala MPS 701474
2016 04 11.02777 14 53 52.84 +04 10 58.8 20.4 V 033 – Karl Schwarzschild Observatory, Tautenburg MPS 701474
2016 04 11.03014 14 53 52.66 +04 10 59.5 20.0 V 033 – Karl Schwarzschild Observatory, Tautenburg MPS 701474
2016 04 11.03250 14 53 52.46 +04 10 59.9 20.5 V 033 – Karl Schwarzschild Observatory, Tautenburg MPS 701474
2016 04 11.03487 14 53 52.29 +04 11 00.2 20.4 V 033 – Karl Schwarzschild Observatory, Tautenburg MPS 701474
2016 04 11.03723 14 53 52.11 +04 11 00.9 20.3 V 033 – Karl Schwarzschild Observatory, Tautenburg MPS 701474
2016 04 11.07492 14 53 49.19 +04 11 08.4 20.1 V 033 – Karl Schwarzschild Observatory, Tautenburg MPS 701474
2016 04 11.07728 14 53 49.01 +04 11 08.7 20.0 V 033 – Karl Schwarzschild Observatory, Tautenburg MPS 701474
2016 04 11.07965 14 53 48.82 +04 11 09.4 20.5 V 033 – Karl Schwarzschild Observatory, Tautenburg MPS 701474
2016 04 11.08201 14 53 48.64 +04 11 09.7 20.7 V 033 – Karl Schwarzschild Observatory, Tautenburg MPS 701474
2016 04 11.08437 14 53 48.47 +04 11 10.2 20.2 V 033 – Karl Schwarzschild Observatory, Tautenburg MPS 701474
2016 04 11.530831 14 53 15.892 +04 12 45.77 20.7 R 568 – Maunakea MPS 701474
2016 04 11.531866 14 53 15.808 +04 12 45.95 20.7 R 568 – Maunakea MPS 701474
2016 04 11.532902 14 53 15.724 +04 12 46.15 20.6 R 568 – Maunakea MPS 701474
2016 04 12.28956 14 52 20.16 +04 14 58.5 20.5 R H36 – Sandlot Observatory, Scranton MPS 701474
2016 04 12.33547 14 52 16.38 +04 15 07.0 20.6 R H36 – Sandlot Observatory, Scranton MPS 701474
2016 04 12.343346 14 52 15.64 +04 15 08.6 20.7 V H21 – Astronomical Research Observatory, Westfield MPS 701474
2016 04 12.35123 14 52 15.16 +04 15 09.7 20.7 R H36 – Sandlot Observatory, Scranton MPS 701474
2016 04 12.352146 14 52 14.96 +04 15 10.0 20.5 V H21 – Astronomical Research Observatory, Westfield MPS 701474
2016 04 12.356923 14 52 14.56 +04 15 10.7 20.6 V H21 – Astronomical Research Observatory, Westfield MPS 701474
2016 04 14.32479 14 49 43.73 +04 20 13.8 21.3 V H21 – Astronomical Research Observatory, Westfield MPS 704586
2016 04 14.33555 14 49 42.82 +04 20 15.1 21.2 V H21 – Astronomical Research Observatory, Westfield MPS 704586
2016 04 14.34664 14 49 41.87 +04 20 16.7 21.3 V H21 – Astronomical Research Observatory, Westfield MPS 704586
2016 04 27.16686 14 31 55.05 +04 16 59.3 21.1 V 807 – Cerro Tololo Observatory, La Serena MPS 704586
2016 04 27.17054 14 31 54.72 +04 16 59.6 20.9 V 807 – Cerro Tololo Observatory, La Serena MPS 704586
2016 04 27.17398 14 31 54.47 +04 16 58.7 21.0 V 807 – Cerro Tololo Observatory, La Serena MPS 704586
2016 04 27.29919 14 31 43.89 +04 16 19.3 20.7 R 926 – Tenagra II Observatory, Nogales MPS 704586
2016 04 27.31719 14 31 42.29 +04 16 16.4 20.4 R 926 – Tenagra II Observatory, Nogales MPS 704586
2016 04 27.33096 14 31 41.06 +04 16 14.0 20.4 R 926 – Tenagra II Observatory, Nogales MPS 704586
2016 04 29.290560 14 28 59.37 +04 09 40.6 20.8 V H21 – Astronomical Research Observatory, Westfield MPS 706147
2016 04 29.296961 14 28 58.84 +04 09 38.6 20.9 V H21 – Astronomical Research Observatory, Westfield MPS 706147
2016 04 29.303263 14 28 58.28 +04 09 37.1 20.4 V H21 – Astronomical Research Observatory, Westfield MPS 706147
2016 05 02.44838 14 24 47.36 +03 55 59.1 21.2 V 691 – Steward Observatory, Kitt Peak-Spacewatch MPS 706147
2016 05 02.46153 14 24 46.32 +03 55 54.9 21.0 V 691 – Steward Observatory, Kitt Peak-Spacewatch MPS 706147
2017 12 16.19526 11 01 32.00 +09 04 20.2 21.3 R J04 – ESA Optical Ground Station, Tenerife MPS 849431
2017 12 16.20506 11 01 33.81 +09 04 17.0 21.1 R J04 – ESA Optical Ground Station, Tenerife MPS 849431
2017 12 16.21486 11 01 35.62 +09 04 12.3 21.7 R J04 – ESA Optical Ground Station, Tenerife MPS 849431
2017 12 18.20603 11 07 53.98 +08 51 00.5 20.9 R J04 – ESA Optical Ground Station, Tenerife MPS 849431
2017 12 18.21583 11 07 55.80 +08 50 56.8 20.8 R J04 – ESA Optical Ground Station, Tenerife MPS 849431
2018 01 14.60758 12 29 31.038 +07 03 09.57 21.7 w F51 – Pan-STARRS 1, Haleakala MPS 857842
2018 01 14.61933 12 29 32.859 +07 03 09.32 21.5 w F51 – Pan-STARRS 1, Haleakala MPS 857842
2018 01 14.63130 12 29 34.721 +07 03 08.67 21.5 w F51 – Pan-STARRS 1, Haleakala MPS 857842
2018 01 15.43111 12 31 44.71 +07 02 36.9 21.2 G G96 – Mt. Lemmon Survey MPS 857842
2018 01 15.44051 12 31 46.14 +07 02 36.9 21.4 G G96 – Mt. Lemmon Survey MPS 857842
2018 01 15.44748 12 31 47.25 +07 02 36.6 21.3 G G96 – Mt. Lemmon Survey MPS 857842
2018 01 15.45269 12 31 48.02 +07 02 36.3 21.4 G G96 – Mt. Lemmon Survey MPS 857842
2018 03 16.36595 13 48 27.51 +14 03 41.5 20.8 G G96 – Mt. Lemmon Survey MPS 874650
2018 03 16.38236 13 48 26.87 +14 03 50.8 20.8 G G96 – Mt. Lemmon Survey MPS 874650
2018 03 16.38751 13 48 26.63 +14 03 53.3 20.4 G G96 – Mt. Lemmon Survey MPS 874650
2018 03 28.24449 13 38 44.81 +15 24 21.4 20.5 G G96 – Mt. Lemmon Survey MPS 878928
2018 03 28.24975 13 38 44.41 +15 24 23.2 20.3 G G96 – Mt. Lemmon Survey MPS 878928
2018 03 28.25499 13 38 44.10 +15 24 24.6 20.9 G G96 – Mt. Lemmon Survey MPS 878928
2018 03 28.26024 13 38 43.74 +15 24 25.3 20.6 G G96 – Mt. Lemmon Survey MPS 878928
2018 04 11.30481 13 22 54.63 +15 25 09.6 20.6 G G96 – Mt. Lemmon Survey MPS 879981
2018 04 11.30996 13 22 54.29 +15 25 07.6 19.8 G G96 – Mt. Lemmon Survey MPS 879981
2018 04 11.31508 13 22 53.85 +15 25 07.1 20.6 G G96 – Mt. Lemmon Survey MPS 879981
2018 04 11.32021 13 22 53.50 +15 25 06.0 21.0 G G96 – Mt. Lemmon Survey MPS 879981
2018 04 12.34226 13 21 46.562 +15 20 45.43 20.5 w F51 – Pan-STARRS 1, Haleakala MPS 879981
2018 04 12.34290 13 21 46.522 +15 20 45.28 20.5 w F51 – Pan-STARRS 1, Haleakala MPS 879981
2018 04 12.35523 13 21 45.621 +15 20 42.03 20.8 w F51 – Pan-STARRS 1, Haleakala MPS 879981
2018 04 12.35587 13 21 45.577 +15 20 41.94 20.6 w F51 – Pan-STARRS 1, Haleakala MPS 879981
2018 04 12.36816 13 21 44.671 +15 20 38.70 20.7 w F51 – Pan-STARRS 1, Haleakala MPS 879981
2018 04 12.36881 13 21 44.629 +15 20 38.46 20.8 w F51 – Pan-STARRS 1, Haleakala MPS 879981
2018 04 12.38111 13 21 43.719 +15 20 35.24 20.6 w F51 – Pan-STARRS 1, Haleakala MPS 879981
2018 05 08.28555 13 04 30.23 +10 49 55.4   I52 – Steward Observatory, Mt. Lemmon Station MPS 888922
2018 05 08.28886 13 04 30.18 +10 49 53.9 21.1 G I52 – Steward Observatory, Mt. Lemmon Station MPS 888922
2019 12 02.52777 09 14 38.91 +13 21 10.0 21.9 G V06 – Catalina Sky Survey-Kuiper MPS 1087505
2019 12 02.52955 09 14 39.21 +13 21 10.0 21.4 G V06 – Catalina Sky Survey-Kuiper MPS 1087505
2019 12 02.53132 09 14 39.50 +13 21 09.6 22.1 G V06 – Catalina Sky Survey-Kuiper MPS 1087505
2019 12 02.53310 09 14 39.79 +13 21 09.5 21.9 G V06 – Catalina Sky Survey-Kuiper MPS 1087505
2019 12 20.50844 10 03 22.55 +13 23 52.6 21.5 G G96 – Mt. Lemmon Survey MPS 1103054
2019 12 20.51366 10 03 23.32 +13 23 53.3 21.0 G G96 – Mt. Lemmon Survey MPS 1103054
2019 12 20.51890 10 03 24.10 +13 23 54.2 21.6 G G96 – Mt. Lemmon Survey MPS 1103054
2019 12 20.52414 10 03 24.92 +13 23 55.1 21.6 G G96 – Mt. Lemmon Survey MPS 1103054
2019 12 24.51463 10 13 51.898 +13 36 43.91 20.8 w F51 – Pan-STARRS 1, Haleakala MPS 1103054
2019 12 24.52679 10 13 53.696 +13 36 46.99 21.1 w F51 – Pan-STARRS 1, Haleakala MPS 1103054
2019 12 24.53899 10 13 55.498 +13 36 49.77 21.2 w F51 – Pan-STARRS 1, Haleakala MPS 1103054
2019 12 24.55124 10 13 57.311 +13 36 52.74 21.3 w F51 – Pan-STARRS 1, Haleakala MPS 1103054
2020 01 06.36784 10 45 37.92 +14 58 06.4 21.1 G G96 – Mt. Lemmon Survey MPS 1114762
2020 01 06.37302 10 45 38.62 +14 58 08.8 20.4 G G96 – Mt. Lemmon Survey MPS 1114762
2020 01 06.37822 10 45 39.25 +14 58 12.3 20.3 G G96 – Mt. Lemmon Survey MPS 1114762
2020 01 06.38342 10 45 39.97 +14 58 14.5 20.5 G G96 – Mt. Lemmon Survey MPS 1114762
2020 01 18.54090 11 11 46.55 +17 17 59.5 20.0 G I52 – Steward Observatory, Mt. Lemmon Station MPS 1124790
